Location: Auckland
(36.8670°S, 174.7670°E)
Time: 16:28:44
(UTC+12:00)

Courier 1B Rocket - Pass Details

Date: 20 July 2019
Orbit: 920 x 1202 km, 28.3° (Epoch: 20 August)

Event Time Altitude Azimuth Distance (km) Brightness Sun altitude
Rises 05:08:20 0° 305° (NW) 4,066 - -27.8°
Reaches altitude 10° 05:11:31 10° 314° (NW) 3,079 - -27.1°
Exits shadow 05:14:20 21° 329° (NNW) 2,321 6.7 -26.6°
Maximum altitude 05:18:09 33° 14° (NNE) 1,802 6.5 -25.8°
Drops below altitude 10° 05:24:27 10° 75° (ENE) 2,922 8.5 -24.6°
Sets 05:27:24 0° 84° (E) 3,833 9.5 -24.0°
